Location: ??????
(56.0120°N, 39.1740°E)
Time: 07:16:34
(UTC+00:00)

Cosmos 1140 Rocket - Pass Details

Date: 14 April 2026
Orbit: 740 x 761 km, 74.1° (Epoch: 12 May)

Event Time Altitude Azimuth Distance (km) Brightness Sun altitude
Rises 19:55:41 0° 330° (NNW) 3,216 8.2 -21.9°
Reaches altitude 10° 19:58:04 10° 329° (NNW) 2,284 7.1 -22.0°
Maximum altitude 20:03:13 73° 246° (WSW) 787 3.4 -22.3°
Enters shadow 20:04:18 54° 182° (S) 905 3.5 -22.3°
